Terminal Aerodrome Forecast
Issued by NWS Omaha/Valley, NE

Home | Current Version | Previous Version | Text Only | Print | Product List | Glossary Off
Versions: 1 2 3 4 5 6 7 8 9 10 11 12 13 14 15 16 17 18 19 20 21 22 23 24 25 26 27 28 29 30 31 32 33 34 35 36 37

000
FTUS43 KOAX 022336
TAFOFK
TAF
KOFK 022336Z 0300/0324 20006KT P6SM SCT080
     FM030400 16008KT P6SM SCT080
     FM030900 18012KT 4SM BR BKN015
      TEMPO 0312/0315 2SM BR BKN007
     FM031600 18014G20KT P6SM BKN035
     FM031800 19014G20KT P6SM SCT250=

USA.gov is the U.S. government's official web portal to all federal, state and local government web resources and services.